Regional Weather Roundup
Issued by NWS Wilmington, NC

Home | Current Version | Previous Version | Text Only | Print | Product List | Glossary On
Versions: 1 2 3 4 5 6 7 8 9 10 11 12 13 14 15 16 17 18 19 20 21 22 23 24 25 26 27
000
ASUS42 KILM 300713
RWRILM
RWRILM
REGIONAL HOURLY WEATHER ROUNDUP
NATIONAL WEATHER SERVICE WILMINGTON NC
300 AM EDT SAT JUL 30 2016

NOTE: "FAIR" INDICATES FEW OR NO CLOUDS BELOW 12,000 FEET WITH NO
SIGNIFICANT WEATHER AND/OR OBSTRUCTIONS TO VISIBILITY.

...............WFO WILMINGTON COUNTY WARNING AREA...............

......COASTAL NC AND SC COUNTIES......

CITY           SKY/WX    TMP DP  RH WIND       PRES   REMARKS
WILMINGTON     CLOUDY    80  73  79 CALM      29.93F
N MYRTLE BEACH PTCLDY    81  77  88 SW5       29.93F
MYRTLE BEACH   PTCLDY    82  72  69 S6        29.96S

......INLAND NC AND SC COUNTIES.......

CITY           SKY/WX    TMP DP  RH WIND       PRES   REMARKS
LUMBERTON      PTCLDY    76  72  87 CALM      29.93F
ELIZABETHTOWN  MOCLDY    80  77  90 CALM      29.93F
WHITEVILLE     CLOUDY    79  76  92 CALM      29.93F
FLORENCE       CLEAR     77  74  90 CALM      29.93F
DARLINGTON     PTCLDY    76  74  93 SW5       29.94S
KINGSTREE      FAIR      79  73  83 CALM      29.93F
HARTSVILLE     FAIR      73  72  94 CALM      29.94F
BENNETTSVILLE  FAIR      77  75  94 CALM      29.92F
CONWAY         FAIR      77  73  88 CALM      29.93F
GEORGETOWN     FAIR      77  75  94 CALM      29.95F
MARION           N/A     75  72  88 CALM      29.94S

....................REST OF NORTH CAROLINA......................

.........EASTERN NC.........

CITY           SKY/WX    TMP DP  RH WIND       PRES   REMARKS
CAPE HATTERAS  CLEAR     78  75  90 CALM      29.94S
JACKSONVILLE   CLOUDY    76  74  93 CALM      29.94F
MOREHEAD CITY  CLEAR     81  79  94 CALM      29.93F HX  90
KENANSVILLE    NOT AVBL
NEW BERN       CLEAR     77  75  93 CALM      29.95F
ELIZABETH CITY CLEAR     75  74  96 CALM      29.94F

.........CENTRAL NC.........

CITY           SKY/WX    TMP DP  RH WIND       PRES   REMARKS
RALEIGH DURHAM PTCLDY    78  71  79 SE5       29.94F
ROCKY MOUNT    CLEAR     73  73 100 CALM      29.94F
ROANOKE RAPIDS NOT AVBL
FAYETTEVILLE   CLEAR     79  72  79 S3        29.93F
HOFFMAN        CLOUDY    77  73  87 E1        29.93F

.........WESTERN NC.........

CITY           SKY/WX    TMP DP  RH WIND       PRES   REMARKS
CHARLOTTE      PTCLDY    75  70  84 CALM      29.95F
GREENSBORO     CLOUDY    77  70  79 NE5       29.95F
HICKORY        NOT AVBL
BOONE          NOT AVBL
ASHEVILLE      NOT AVBL

.....................REST OF SOUTH CAROLINA.....................

.........EASTERN SC.........

CITY           SKY/WX    TMP DP  RH WIND       PRES   REMARKS
CHARLESTON     CLEAR     83  78  85 SW7       29.93F HX  93
BEAUFORT MCAS  CLEAR     82  76  81 SW6       29.95S
HILTON HEAD    CLEAR     84  79  84 SW6       29.96S HX  96

.........CENTRAL SC.........

CITY           SKY/WX    TMP DP  RH WIND       PRES   REMARKS
COLUMBIA       CLEAR     80  72  76 CALM      29.93F
ORANGEBURG     CLEAR     77  72  84 CALM      29.94F
SUMTER SHAW    PTCLDY    77  73  88 W2        29.91F HAZE

.........WESTERN SC.........

CITY           SKY/WX    TMP DP  RH WIND       PRES   REMARKS
GREENVILLE     NOT AVBL
ROCK HILL      CLEAR     74  71  91 SW6       29.95F
ANDERSON       CLEAR     74  71  91 CALM      29.96F
CLEMSON        NOT AVBL
GREENWOOD      CLEAR     77  69  76 SW7       29.96F


...................COASTAL AND OFFSHORE REPORTS..................

................LOCAL PIERS AND NC RESERVE................


STATION/POSITION TIME  SKY/WX   TEMP    WIND        PRES    VSBY
                                AIR SEA DIR/SP/G
                 (UTC)          (F)     (DEG/KT/KT) (MB)    (MI)
JOHNY MRCER PIER 0600            83 81  290/  7/ 13 1013.4R
NC RESRV MASNBRO NOT AVBL
OCEAN CREST PIER NOT AVBL
SPRINGMAID  PIER 0600            83 83              1013.7F


................COASTAL AND OFFSHORE BUOYS................


STATION/POSITION TIME  SKY/WX   TEMP    WIND        PRES    VSBY
                                AIR SEA DIR/SP/G
                 (UTC)          (F)     (DEG/KT/KT) (MB)    (MI)
DIMNDSHOAL 41025 0550            84 85  230/  4/  4 1013.9
WVE H/P(F/S)=  3/ 4 SWL H/P/D(F/S/D)=  3/220/ 4

CAPE LOOKOUT     0600            82     260/  7/  8 1013.7F
ONSLOW BAY 41036 NOT AVBL
ONSLOW BAY 41064 0608            85 85  240/ 12/ 17 1014.1R
ONSLOW BAY 41159 0625               85                N/A
WVE H/P(F/S)=  4/ 6

5SE WRITBC 41038 0608            81 80  280/  4/  6 1014.8S
MASNBO INL 41110 0606               80                N/A
WVE H/P(F/S)=  2/ 5

WILM HARBR 41108 0626               84                N/A
WVE H/P(F/S)=  4/ 6

27SE WRITB 41037 0608            85 84  230/ 12/ 16 1014.2F
FRYING PAN 41013 0600            85 85  240/ 14/ 16 1014.0F
SUNST NRSH 41024 0608            84 84  250/ 10/ 12 1013.5F
CAPRS NRSH 41029 0608            86 84  230/ 16/ 21 1014.0F
EDISTO     41004 0550            86 86  220/ 17/ 21 1014.0
WVE H/P(F/S)=  3/ 4 SWL H/P/D(F/S/D)=  2/140/ 8



..........OFFSHORE BUOYS BEYOND 100 NM OFFSHORE...........
.....IN A TRIANGLE---HAT TO BERMUDA TO BAHAMAS TO HAT.....


STATION/POSITION TIME  SKY/WX   TEMP    WIND        PRES    VSBY
                                AIR SEA DIR/SP/G
                 (UTC)          (F)     (DEG/KT/KT) (MB)    (MI)
150E HAT   41001 NOT AVBL
W BERMUDA  41048 0550            84 85  190/ 10/ 12 1017.2
WVE H/P(F/S)=  3/ 8 SWL H/P/D(F/S/D)=  2/110/ 8

ATLANTIC S 41049 0550            83 85  140/ 10/ 14 1021.5
WVE H/P(F/S)=  4/ 9 SWL H/P/D(F/S/D)=  3/ 90/ 9

E BAHAMAS  41046 0600            83 85  110/ 12/ 16 1017.8F
NE BAHAMAS 41047 0600            83 85  190/ 10/ 12 1017.5F
120E CANVRL41010 0620            85 87  230/  4/  6 1016.8F

END




USA.gov is the U.S. government's official web portal to all federal, state and local government web resources and services.